Home > Weather > Sindelfingen > Past weeks

Flag for Germany Weather for the Past 2 Weeks in Sindelfingen, Baden-Württemberg, Germany

Now
43 °F

Passing clouds.


Feels Like: 41 °F
Forecast: 36 / 46 °F
Wind: 3 mph from Southwest

Location: Stuttgart-Echterdingen

Current Time: Feb 6, 2016 at 10:54:16 PM

Latest Report: Feb 6, 2016 at 9:50 PM


Visibility: N/A

Pressure: 29.80 "Hg

Humidity: 76%

Dew point: 36 °F

Location of SindelfingenLocation

Historic Weather in Sindelfingen — Graph

°F

Sindelfingen Temperature Yesterday

Maximum temperature yesterday: 50 °F (at 2:50 PM)
Minimum temperature yesterday: 39 °F (at 3:50 AM)
Average temperature yesterday: 43 °F

High & Low Weather Summary for the Past Weeks

 TemperatureHumidityPressure
High61 °F (Jan 26, 2:20 PM)100% (Jan 23, 2:50 AM)30.63 "Hg (Jan 23, 2:50 AM)
Low23 °F (Jan 22, 9:20 PM)44% (Feb 6, 1:20 PM)29.80 "Hg (Feb 6, 9:20 PM)
Average43 °F82%30.24 "Hg
* Reported Jan 22 9:20 PM — Feb 6 9:20 PM, Sindelfingen, Weather by CustomWeather, © 2016

Note: Actual official high and low records may vary slightly from our data, if they occured in-between our weather recording intervals... More about our weather records

Advertising

Sindelfingen Weather History for the Previous 24 Hours

 ConditionsComfort  
Time TempWeatherWind HumidityBarometerVisibility
9:20 PM
Sat, Feb 6
43 °FClear.3 mph76%29.80 "Hg10 mi
8:50 PM43 °FClear.2 mph71%29.83 "Hg10 mi
8:20 PM45 °FPassing clouds.6 mph76%29.83 "HgN/A
7:50 PM46 °FClear.2 mph71%29.86 "Hg10 mi
7:20 PM45 °FPassing clouds.5 mph76%29.86 "HgN/A
6:50 PM45 °FPassing clouds.3 mph76%29.86 "HgN/A
6:20 PM45 °FClear.1 mph76%29.86 "Hg10 mi
5:50 PM46 °FClear.2 mph76%29.89 "Hg10 mi
5:20 PM50 °FSunny.2 mph67%29.89 "Hg10 mi
4:50 PM52 °FPassing clouds.3 mph67%29.92 "HgN/A
4:20 PM54 °FSunny.6 mph63%29.92 "Hg10 mi
3:50 PM55 °FSunny.3 mph63%29.95 "Hg10 mi
3:20 PM57 °FSunny.2 mph51%29.95 "Hg10 mi
2:50 PM57 °FPassing clouds.3 mph48%29.95 "HgN/A
2:20 PM57 °FPassing clouds.6 mph51%29.98 "HgN/A
1:50 PM57 °FPassing clouds.9 mph48%29.98 "HgN/A
1:20 PM57 °FPassing clouds.8 mph44%30.01 "HgN/A
12:50 PM55 °FPassing clouds.8 mph51%30.01 "HgN/A
12:20 PM52 °FSunny.3 mph67%30.04 "Hg10 mi
11:50 AM48 °FPassing clouds.6 mph76%30.07 "HgN/A
11:20 AM45 °FPassing clouds.3 mph87%30.07 "HgN/A
10:50 AM41 °FSunny.2 mph93%30.07 "Hg10 mi
10:20 AM39 °FSunny.2 mph93%30.07 "Hg10 mi
9:50 AM36 °FSunny.1 mph93%30.07 "Hg10 mi
9:20 AM34 °FSunny.1 mph100%30.09 "Hg10 mi
8:50 AM34 °FSunny.2 mph100%30.09 "Hg10 mi
8:20 AM34 °FSunny.2 mph93%30.09 "Hg10 mi
7:50 AM34 °FSunny.2 mph93%30.09 "Hg10 mi
7:20 AM37 °FFog.2 mph100%30.09 "HgN/A
6:50 AM34 °FClear.1 mph93%30.09 "Hg10 mi
6:20 AM32 °FClear.2 mph100%30.09 "Hg10 mi
5:50 AM34 °FClear.2 mph100%30.09 "Hg10 mi
5:20 AM34 °FClear.1 mph93%30.09 "Hg10 mi
4:50 AM32 °FPassing clouds.3 mph100%30.12 "HgN/A
4:20 AM32 °FLight fog.3 mph100%30.12 "HgN/A
3:50 AM34 °FClear.2 mph100%30.12 "Hg10 mi
3:20 AM36 °FClear.2 mph93%30.12 "HgN/A
2:50 AM37 °FClear.1 mph93%30.15 "Hg10 mi
2:20 AM39 °FClear.2 mph93%30.15 "Hg10 mi
1:20 AM36 °FClear.2 mph100%30.18 "Hg10 mi
12:50 AM37 °FClear.1 mph93%30.18 "Hg10 mi
12:20 AM37 °FClear.2 mph93%30.18 "Hg10 mi
11:50 PM
Fri, Feb 5
39 °FClear.2 mph93%30.21 "Hg10 mi
11:20 PM39 °FPassing clouds.3 mph87%30.21 "HgN/A
10:50 PM39 °FClear.2 mph87%30.21 "Hg10 mi
10:20 PM39 °FClear.5 mph93%30.21 "Hg10 mi
Weather by CustomWeather, © 2016

See weather overviewHow to use our weather pages